Sparta, WI

7:04 AM CDT on July 22, 2017 (GMT -0500)
Sparta-Fort McCoy

Weather History for KCMY - August, 2013

Change the Weather History Date:

Friday, August 16, 2013

  Actual Average Record
Temperature  
Mean Temperature 62 °F -  
Max Temperature 80 °F 83 °F 96 °F (2003)
Min Temperature 43 °F 57 °F 38 °F (1976)
Degree Days  
Heating Degree Days 4    
Growing Degree Days 12 (Base 50)    
Moisture  
Dew Point 49 °F    
Average Humidity 67    
Maximum Humidity 100    
Minimum Humidity 29    
Precipitation  
Precipitation 0.00 in - - ()
Sea Level Pressure  
Sea Level Pressure 30.19 in    
Wind  
Wind Speed 1 mph (West)    
Max Wind Speed 7 mph    
Max Gust Speed -    
Visibility 10 miles    
Events      
Averages and records for this station are not official NWS values.
T = Trace of Precipitation, MM = Missing Value Source: NWS Daily Summary

Daily Weather History Graph

Daily Weather History Graph

Search for Another Location

Airport or City:

Trip Planner

Search our weather history database for the weather conditions in past years. The results will help you decide how hot, cold, wet, or windy it might be!

Date:

Astronomy

Aug. 16, 2013 Rise Set
Actual Time 6:08 AM CDT 8:05 PM CDT
Civil Twilight 5:37 AM CDT 8:36 PM CDT
Nautical Twilight 4:58 AM CDT 9:14 PM CDT
Astronomical Twilight 4:17 AM CDT 9:55 PM CDT
Moon 4:28 PM CDT (8/16) 1:07 AM CDT (8/16)
Length of Visible Light 14h 59m
Length of Day
13h 56m
Waxing Gibbous, 75% of the Moon is Illuminated
Aug 16
Waxing Gibbous
Aug 20
Full
Aug 28
Last Quarter
Sep 5
New
Sep 12
First Quarter

Hourly Weather History & Observations

Time (CDT) Temp. Dew Point Humidity Pressure Visibility Wind Dir Wind Speed Gust Speed Precip Events Conditions
12:36 AM 50.0 °F 48.2 °F 94% 30.17 in 10.0 mi Calm Calm - N/A   Unknown
12:55 AM 48.2 °F 48.2 °F 100% 30.17 in 10.0 mi Calm Calm - N/A   Unknown
1:36 AM 48.2 °F 46.4 °F 93% 30.17 in 10.0 mi Calm Calm - N/A   Unknown
1:54 AM 48.2 °F 46.4 °F 93% 30.17 in 10.0 mi Calm Calm - N/A   Unknown
1:55 AM 47.7 °F 46.9 °F 97% 30.17 in 10.0 mi Calm Calm - N/A   Unknown
2:14 AM 48.2 °F 46.4 °F 93% 30.17 in 10.0 mi Calm Calm - N/A   Unknown
2:35 AM 47.5 °F 46.6 °F 97% 30.16 in 10.0 mi Calm Calm - N/A   Unknown
2:55 AM 46.8 °F 45.7 °F 96% 30.16 in 10.0 mi Calm Calm - N/A   Unknown
3:35 AM 45.7 °F 44.6 °F 96% 30.16 in 10.0 mi Calm Calm - N/A   Unknown
3:55 AM 45.9 °F 44.6 °F 95% 30.16 in 10.0 mi Calm Calm - N/A   Unknown
4:15 AM 45.3 °F 44.2 °F 96% 30.17 in 10.0 mi Calm Calm - N/A   Unknown
4:35 AM 45.0 °F 44.1 °F 97% 30.17 in 10.0 mi Calm Calm - N/A   Unknown
4:55 AM 44.1 °F 43.2 °F 97% 30.17 in 10.0 mi Calm Calm - N/A   Unknown
5:15 AM 43.5 °F 43.2 °F 99% 30.18 in 10.0 mi Calm Calm - N/A   Unknown
5:35 AM 44.2 °F 43.3 °F 97% 30.18 in 10.0 mi Calm Calm - N/A   Unknown
6:34 AM 44.6 °F 44.6 °F 100% 30.19 in 10.0 mi Calm Calm - N/A   Unknown
7:35 AM 49.5 °F 48.6 °F 97% 30.20 in 10.0 mi Calm Calm - N/A   Unknown
8:15 AM 54.9 °F 51.8 °F 89% 30.21 in 10.0 mi Calm Calm - N/A   Unknown
8:16 AM 55.4 °F 51.8 °F 88% 30.21 in 10.0 mi Calm Calm - N/A   Unknown
8:55 AM 61.3 °F 53.1 °F 74% 30.21 in 10.0 mi Calm Calm - N/A   Unknown
9:15 AM 63.9 °F 53.6 °F 69% 30.21 in 10.0 mi Calm Calm - N/A   Unknown
9:55 AM 67.6 °F 54.9 °F 64% 30.21 in 10.0 mi Calm Calm - N/A   Unknown
10:14 AM 69.8 °F 55.4 °F 60% 30.21 in 10.0 mi Calm Calm - N/A   Unknown
10:35 AM 72.1 °F 55.2 °F 55% 30.21 in 10.0 mi Calm Calm - N/A   Unknown
11:15 AM 75.2 °F 53.8 °F 47% 30.22 in 10.0 mi West 4.6 mph - N/A   Unknown
11:35 AM 76.5 °F 53.6 °F 45% 30.21 in 10.0 mi North 5.8 mph - N/A   Unknown
11:55 AM 74.3 °F 50.2 °F 43% 30.21 in 10.0 mi WSW 3.5 mph - N/A   Unknown
12:15 PM 75.7 °F 50.2 °F 41% 30.20 in 10.0 mi NW 4.6 mph - N/A   Unknown
1:15 PM 76.1 °F 48.6 °F 38% 30.20 in 10.0 mi Calm Calm - N/A   Unknown
1:35 PM 75.9 °F 50.2 °F 40% 30.20 in 10.0 mi Calm Calm - N/A   Unknown
1:55 PM 77.2 °F 48.0 °F 36% 30.20 in 10.0 mi South 4.6 mph - N/A   Unknown
2:15 PM 79.2 °F 48.0 °F 33% 30.19 in 10.0 mi SW 4.6 mph - N/A   Unknown
2:35 PM 79.2 °F 47.7 °F 33% 30.19 in 10.0 mi WSW 6.9 mph - N/A   Unknown
2:55 PM 79.0 °F 47.7 °F 33% 30.19 in 10.0 mi SW 5.8 mph - N/A   Unknown
3:15 PM 79.2 °F 44.8 °F 30% 30.18 in 10.0 mi Calm Calm - N/A   Unknown
3:35 PM 79.7 °F 45.3 °F 30% 30.18 in 10.0 mi WSW 6.9 mph - N/A   Unknown
3:55 PM 80.8 °F 45.7 °F 29% 30.18 in 10.0 mi NW 6.9 mph - N/A   Unknown
4:15 PM 79.3 °F 45.0 °F 30% 30.18 in 10.0 mi NW 3.5 mph - N/A   Unknown
4:54 PM 78.8 °F 44.6 °F 30% 30.18 in 10.0 mi Calm Calm - N/A   Unknown
5:15 PM 79.0 °F 45.9 °F 31% 30.18 in 10.0 mi Calm Calm - N/A   Unknown
5:35 PM 78.8 °F 46.9 °F 32% 30.18 in 10.0 mi WSW 3.5 mph - N/A   Unknown
5:55 PM 78.4 °F 46.8 °F 33% 30.18 in 10.0 mi SW 3.5 mph - N/A   Unknown
6:15 PM 78.1 °F 46.8 °F 33% 30.18 in 10.0 mi WNW 4.6 mph - N/A   Unknown
6:35 PM 77.7 °F 47.1 °F 34% 30.18 in 10.0 mi WNW 5.8 mph - N/A   Unknown
6:55 PM 77.0 °F 48.7 °F 37% 30.18 in 10.0 mi WNW 4.6 mph - N/A   Unknown
6:57 PM 77.0 °F 48.2 °F 36% 30.18 in 10.0 mi WNW 4.6 mph - N/A   Unknown
7:15 PM 75.7 °F 50.5 °F 41% 30.18 in 10.0 mi Calm Calm - N/A   Unknown
7:34 PM 71.6 °F 53.6 °F 53% 30.18 in 10.0 mi Calm Calm - N/A   Unknown
7:55 PM 67.8 °F 54.9 °F 63% 30.18 in 10.0 mi Calm Calm - N/A   Unknown
8:15 PM 64.8 °F 55.2 °F 71% 30.19 in 10.0 mi Calm Calm - N/A   Unknown
8:35 PM 62.6 °F 56.3 °F 80% 30.19 in 10.0 mi Calm Calm - N/A   Unknown
8:55 PM 61.0 °F 54.9 °F 80% 30.20 in 10.0 mi Calm Calm - N/A   Unknown
9:16 PM 60.8 °F 55.4 °F 82% 30.20 in 10.0 mi Calm Calm - N/A   Unknown
9:35 PM 57.2 °F 53.6 °F 88% 30.20 in 10.0 mi Calm Calm - N/A   Unknown
9:55 PM 57.2 °F 55.4 °F 94% 30.20 in 10.0 mi Calm Calm - N/A   Unknown
10:14 PM 57.2 °F 55.4 °F 94% 30.20 in 10.0 mi Calm Calm - N/A   Unknown
10:55 PM 54.9 °F 53.2 °F 94% 30.21 in 10.0 mi Calm Calm - N/A   Unknown
11:15 PM 53.6 °F 53.6 °F 100% 30.20 in 10.0 mi Calm Calm - N/A   Unknown
11:55 PM 53.6 °F 51.8 °F 94% 30.21 in 10.0 mi Calm Calm - N/A   Unknown